Weather History for KBLF - September, 2013

Change the Weather History Date:

Friday, September 13, 2013

  Actual Average Record
Temperature  
Mean Temperature 61 °F 67 °F  
Max Temperature 71 °F 76 °F 92 °F (1998)
Min Temperature 51 °F 58 °F 39 °F (1985)
Degree Days  
Heating Degree Days 4 2  
Month to date heating degree days 4 12  
Since 1 July heating degree days 10 18  
Cooling Degree Days 0 3  
Month to date cooling degree days 93 60  
Year to date cooling degree days 895 794  
Growing Degree Days 12 (Base 50)    
Moisture  
Dew Point 54 °F    
Average Humidity 62    
Maximum Humidity 87    
Minimum Humidity 37    
Precipitation  
Precipitation T in 0.11 in 2.59 in (1966)
Month to date precipitation 0.86 1.31  
Year to date precipitation 31.08 29.70  
Snow  
Snow 0.00 in - - ()
Month to date snowfall 0.0  
Since 1 July snowfall 0.0  
Since 1 September snowfall 0.0  
Snow Depth 0.00 in    
Sea Level Pressure  
Sea Level Pressure 29.91 in    
Wind  
Wind Speed 6 mph (WNW)    
Max Wind Speed 16 mph    
Max Gust Speed 21 mph    
Visibility 10 miles    
Events Rain    
T = Trace of Precipitation, MM = Missing Value Source: NWS Daily Summary

Daily Weather History Graph

Daily Weather History Graph

Search for Another Location

Airport or City:

Trip Planner

Search our weather history database for the weather conditions in past years. The results will help you decide how hot, cold, wet, or windy it might be!

Date:

Astronomy

Sep. 13, 2013 Rise Set
Actual Time 7:05 AM EDT 7:35 PM EDT
Civil Twilight 6:39 AM EDT 8:01 PM EDT
Nautical Twilight 6:08 AM EDT 8:32 PM EDT
Astronomical Twilight 5:36 AM EDT 9:03 PM EDT
Moon 3:18 PM EDT (9/13) 12:39 AM EDT (9/13)
Length of Visible Light 13h 22m
Length of Day
12h 29m
First Quarter, 61% of the Moon is Illuminated
Sep 13
First Quarter
Sep 19
Full
Sep 26
Last Quarter
Oct 4
New
Oct 11
First Quarter

Hourly Weather History & Observations

Time (EDT) Temp. Dew Point Humidity Pressure Visibility Wind Dir Wind Speed Gust Speed Precip Events Conditions
12:13 AM 66.2 °F 60.8 °F 83% 29.98 in 8.0 mi West 4.6 mph - N/A   Overcast
12:27 AM 66.2 °F 60.8 °F 83% 29.97 in 7.0 mi West 5.8 mph - N/A   Overcast
12:52 AM 66.0 °F 61.0 °F 84% 29.86 in 8.0 mi West 5.8 mph - N/A   Overcast
1:52 AM 66.0 °F 61.0 °F 84% 29.84 in 7.0 mi West 5.8 mph - N/A   Overcast
2:20 AM 66.2 °F 60.8 °F 83% 29.96 in 8.0 mi WNW 6.9 mph - N/A   Overcast
2:52 AM 64.9 °F 60.1 °F 84% 29.84 in 8.0 mi WNW 8.1 mph - N/A   Mostly Cloudy
3:52 AM 64.9 °F 60.1 °F 84% 29.82 in 9.0 mi West 8.1 mph - N/A   Overcast
4:48 AM 64.4 °F 60.8 °F 88% 29.93 in 10.0 mi West 6.9 mph - N/A   Mostly Cloudy
4:52 AM 64.9 °F 60.1 °F 84% 29.82 in 9.0 mi West 6.9 mph - N/A   Mostly Cloudy
5:08 AM 64.4 °F 59.0 °F 83% 29.93 in 10.0 mi West 6.9 mph 20.7 mph N/A   Mostly Cloudy
5:18 AM 64.4 °F 60.8 °F 88% 29.93 in 10.0 mi West 6.9 mph - N/A   Mostly Cloudy
5:33 AM 64.4 °F 59.0 °F 83% 29.93 in 10.0 mi West 9.2 mph - N/A   Mostly Cloudy
5:52 AM 64.9 °F 59.0 °F 81% 29.82 in 10.0 mi West 9.2 mph - N/A   Mostly Cloudy
6:01 AM 64.4 °F 59.0 °F 83% 29.93 in 10.0 mi West 10.4 mph - N/A   Mostly Cloudy
6:21 AM 64.4 °F 59.0 °F 83% 29.93 in 10.0 mi West 9.2 mph - N/A   Overcast
6:52 AM 64.9 °F 59.0 °F 81% 29.85 in 10.0 mi NW 6.9 mph - 0.00 in Rain Light Rain
7:09 AM 64.4 °F 57.2 °F 77% 29.95 in 10.0 mi NW 8.1 mph - 0.00 in   Overcast
7:30 AM 64.4 °F 57.2 °F 77% 29.95 in 10.0 mi NW 6.9 mph - 0.00 in   Overcast
7:52 AM 64.0 °F 57.9 °F 80% 29.87 in 10.0 mi WNW 5.8 mph - 0.00 in   Overcast
8:44 AM 64.4 °F 55.4 °F 73% 29.96 in 10.0 mi NW 6.9 mph - N/A   Mostly Cloudy
8:52 AM 64.0 °F 55.0 °F 73% 29.88 in 10.0 mi NW 8.1 mph - N/A   Mostly Cloudy
9:02 AM 62.6 °F 55.4 °F 77% 29.96 in 10.0 mi WNW 8.1 mph - N/A   Mostly Cloudy
9:44 AM 64.4 °F 53.6 °F 68% 29.97 in 10.0 mi WNW 8.1 mph - N/A   Mostly Cloudy
9:52 AM 64.9 °F 52.0 °F 63% 29.89 in 10.0 mi Variable 6.9 mph 19.6 mph N/A   Scattered Clouds
10:52 AM 66.0 °F 52.0 °F 60% 29.89 in 10.0 mi Variable 5.8 mph - N/A   Partly Cloudy
11:52 AM 68.0 °F 46.9 °F 47% 29.89 in 10.0 mi NW 8.1 mph 16.1 mph N/A   Scattered Clouds
12:52 PM 68.0 °F 46.0 °F 45% 29.89 in 10.0 mi NNW 9.2 mph - N/A   Scattered Clouds
1:52 PM 69.1 °F 44.1 °F 40% 29.88 in 10.0 mi WNW 9.2 mph 17.3 mph N/A   Partly Cloudy
2:52 PM 70.0 °F 46.9 °F 44% 29.87 in 10.0 mi NW 9.2 mph - N/A   Mostly Cloudy
3:52 PM 66.0 °F 44.1 °F 45% 29.88 in 10.0 mi NW 9.2 mph - N/A   Partly Cloudy
4:52 PM 69.1 °F 43.0 °F 39% 29.87 in 10.0 mi NW 9.2 mph 17.3 mph N/A   Overcast
5:52 PM 63.0 °F 44.1 °F 50% 29.89 in 10.0 mi Variable 5.8 mph - N/A   Partly Cloudy
6:52 PM 64.0 °F 45.0 °F 50% 29.91 in 10.0 mi Variable 6.9 mph - N/A   Clear
7:52 PM 59.0 °F 45.0 °F 60% 29.94 in 10.0 mi NW 4.6 mph - N/A   Clear
8:52 PM 57.0 °F 45.0 °F 64% 29.97 in 10.0 mi Variable 4.6 mph - N/A   Clear
9:52 PM 55.9 °F 46.0 °F 69% 29.98 in 10.0 mi Calm Calm - N/A   Overcast
10:52 PM 54.0 °F 45.0 °F 72% 30.00 in 10.0 mi Calm Calm - N/A   Partly Cloudy
11:52 PM 52.0 °F 44.1 °F 74% 30.00 in 10.0 mi Calm Calm - N/A   Clear